Regional Weather Roundup
Issued by NWS

Home | Current Version | Previous Version | Graphics & Text | Print | Product List | Glossary On
Versions: 1 2 3 4 5 6 7 8 9 10 11 12 13 14 15 16 17 18 19 20 21 22 23 24 25 26 27 28 29 30 31 32 33 34 35 36 37 38 39 40 41 42 43 44 45 46 47 48 49 50
000
ASUS43 KTOP 291859
RWRKS

WEATHER ROUNDUP FOR KANSAS
NATIONAL WEATHER SERVICE GOODLAND KS
200 PM CDT FRI MAY 29 2015

NOTE:  "FAIR" INDICATES FEW OR NO CLOUDS BELOW 12,000 FEET WITH NO
SIGNIFICANT WEATHER AND/OR OBSTRUCTIONS TO VISIBILITY.

KSZ001>006-013>018-027>032-041>047-292000-
NORTHWEST KANSAS

CITY           SKY/WX    TMP DP  RH WIND       PRES   REMARKS
GOODLAND       MOSUNNY   71  52  50 N14G22    30.09F
HAYS           PTSUNNY   73  57  56 N7        30.01F
HILL CITY      MOSUNNY   77  56  48 N6        30.02S
RUSSELL        PTSUNNY   76  61  59 MISG      29.99S
$$

KSZ061>065-074>080-084>089-292000-
SOUTHWEST KANSAS

CITY           SKY/WX    TMP DP  RH WIND       PRES   REMARKS
DODGE CITY     MOSUNNY   76  55  48 N12G17    30.03F
ELKHART          N/A     71  52  51 N12         N/A
GARDEN CITY    MOSUNNY   73  53  49 NE15G24   30.05R
GREAT BEND     PTSUNNY   73  55  53 NW5       29.99F
LIBERAL        MOSUNNY   75  59  57 N13G18    30.06S
$$

KSZ066>073-081>083-090>101-292000-
SOUTHEAST KANSAS

CITY           SKY/WX    TMP DP  RH WIND       PRES   REMARKS
CHANUTE        LGT RAIN  69  68  96 SE6       30.01S
COFFEYVILLE    LGT RAIN  70  68  93 CALM      30.00S
HUTCHINSON     CLOUDY    77  62  59 VRB5      29.98S
MEDICINE LODGE   N/A     78  62  57 VRB3      29.97F
NEWTON         CLOUDY    72  63  73 SW3       30.01S
PARSONS        LGT RAIN  70  69  97 VRB3      30.02R
WICHITA INTL   CLOUDY    75  63  66 SE6       29.98S
WICHITA JABRA  CLOUDY    74  64  71 S7        29.98S
WICHITA MCCONL CLOUDY    74  65  72 SE7       29.98S
WINFIELD       CLOUDY    73  66  78 SE9       29.99F
$$

KSZ007>012-019>026-033>040-048>060-102>105-292000-
NORTHEAST KANSAS

CITY           SKY/WX    TMP DP  RH WIND       PRES   REMARKS
CONCORDIA      CLOUDY    73  60  63 SW8       29.97S
EMPORIA        CLOUDY    68  66  93 S10       29.99R
LAWRENCE       LGT RAIN  68  65  90 S7        30.00S
MANHATTAN      CLOUDY    72  66  81 S7        29.97R
OLATHE IND     LGT RAIN  68  66  93 S5        30.01F
OLATHE EXE     LGT RAIN  68  66  93 S5        30.00F
SALINA         CLOUDY    76  60  57 VRB3      29.98R
TOPEKA BILLARD LGT RAIN  69  66  90 S6        29.99S
TOPEKA FORBES  CLOUDY    70  66  87 CALM      29.99R
$$



USA.gov is the U.S. government's official web portal to all federal, state and local government web resources and services.